GW4853 Weather Reports


time (UTC)temp
C
wind
direction
speed
KPH
gust
KPH
rain 1hr
cm
rain 24hr
cm
rain mn
cm
humidity
%
barometer
mb
20260508111305 2 116 1.6 1.6 0.00 0.00 0.00 95 1015.2
20260508110802 2 116 1.6 3.2 0.00 0.00 0.00 95 1015.0
20260508110259 2 116 1.6 1.6 0.00 0.00 0.00 95 1015.1
20260508105753 2 116 0.0 1.6 0.00 0.00 0.00 95 1015.2
20260508105251 2 116 1.6 3.2 0.00 0.00 0.00 96 1015.0
20260508104748 2 116 0.0 1.6 0.00 0.00 0.00 96 1014.9
20260508104244 2 115 1.6 1.6 0.00 0.00 0.00 96 1015.0
20260508103742 2 115 1.6 1.6 0.00 0.00 0.00 96 1014.9
20260508103238 2 116 1.6 1.6 0.00 0.00 0.00 96 1014.8
20260508102736 2 116 0.0 1.6 0.00 0.00 0.00 96 1014.8
20260508102234 2 116 1.6 1.6 0.00 0.00 0.00 96 1014.7
20260508101731 2 115 1.6 3.2 0.00 0.00 0.00 96 1014.7
20260508101228 2 116 0.0 1.6 0.00 0.00 0.00 96 1014.6
20260508100726 2 115 1.6 3.2 0.00 0.00 0.00 95 1014.7
20260508100224 2 118 1.6 1.6 0.00 0.00 0.00 95 1014.7
20260508095719 2 118 1.6 1.6 0.00 0.00 0.00 95 1014.6
20260508095218 2 118 3.2 3.2 0.00 0.00 0.00 95 1014.6
20260508094714 2 113 1.6 1.6 0.00 0.00 0.00 95 1014.5
20260508094211 2 112 1.6 1.6 0.00 0.00 0.00 95 1014.5
20260508093708 2 112 1.6 3.2 0.00 0.00 0.00 95 1014.6
20260508093206 2 123 1.6 1.6 0.00 0.00 0.00 95 1014.4
20260508092702 2 124 1.6 1.6 0.00 0.00 0.00 95 1014.5
20260508092201 2 124 1.6 3.2 0.00 0.00 0.00 95 1014.4
20260508091658 2 104 1.6 1.6 0.00 0.00 0.00 95 1014.7
20260508091155 2 104 1.6 1.6 0.00 0.00 0.00 95 1014.5
20260508090653 2 104 3.2 3.2 0.00 0.00 0.00 95 1014.4
20260508090150 2 104 1.6 3.2 0.00 0.00 0.00 95 1014.3
20260508085645 2 103 1.6 3.2 0.00 0.00 0.00 95 1014.1
20260508085143 2 103 1.6 1.6 0.00 0.00 0.00 95 1014.4
20260508084639 3 104 1.6 3.2 0.00 0.00 0.00 95 1014.3
20260508084136 3 103 1.6 1.6 0.00 0.00 0.00 95 1014.4
20260508083634 3 103 1.6 1.6 0.00 0.00 0.00 95 1014.3
20260508083131 3 103 3.2 3.2 0.00 0.00 0.00 95 1014.2
20260508082626 3 103 1.6 1.6 0.00 0.00 0.00 95 1014.3
20260508082124 3 102 1.6 1.6 0.00 0.00 0.00 95 1014.2
20260508081621 3 104 1.6 1.6 0.00 0.00 0.00 95 1014.3
20260508081117 3 104 1.6 3.2 0.00 0.00 0.00 95 1014.2
20260508080615 3 103 1.6 1.6 0.00 0.00 0.00 96 1014.2
20260508080113 3 103 1.6 1.6 0.00 0.00 0.00 96 1014.2
20260508075608 3 103 1.6 1.6 0.00 0.00 0.00 96 1014.2
20260508075106 3 102 1.6 3.2 0.00 0.00 0.00 96 1014.3
20260508074604 3 69 1.6 1.6 0.00 0.00 0.00 96 1014.2
20260508074100 3 68 1.6 3.2 0.00 0.00 0.00 96 1014.2
20260508073558 3 68 1.6 1.6 0.00 0.00 0.00 95 1014.1
20260508073055 3 68 0.0 1.6 0.00 0.00 0.00 95 1014.2
20260508072550 3 68 1.6 1.6 0.00 0.00 0.00 96 1014.1
20260508072048 3 68 1.6 1.6 0.00 0.00 0.00 95 1014.1
20260508071546 3 67 1.6 1.6 0.00 0.00 0.00 95 1014.0
20260508071044 3 67 0.0 0.0 0.00 0.00 0.00 95 1014.1
20260508070541 3 68 0.0 0.0 0.00 0.00 0.00 95 1014.2
20260508070039 3 68 1.6 1.6 0.00 0.00 0.00 95 1014.2
20260508065536 3 68 1.6 1.6 0.00 0.00 0.00 96 1014.0
20260508065035 3 68 1.6 1.6 0.00 0.00 0.00 96 1014.4
20260508064532 3 67 0.0 0.0 0.00 0.00 0.00 95 1014.4
20260508064030 3 67 0.0 0.0 0.00 0.00 0.00 95 1014.4
20260508063527 3 67 0.0 1.6 0.00 0.00 0.00 95 1014.3
20260508063025 3 67 0.0 1.6 0.00 0.00 0.00 95 1014.5
20260508062522 3 67 0.0 1.6 0.00 0.00 0.00 95 1014.5
20260508062018 3 67 0.0 0.0 0.00 0.00 0.00 94 1014.6
20260508061517 3 67 0.0 0.0 0.00 0.00 0.00 93 1014.4
20260508061013 3 67 0.0 0.0 0.00 0.00 0.00 94 1014.7
20260508060510 3 67 1.6 1.6 0.00 0.00 0.00 94 1014.4
20260508060008 3 66 0.0 1.6 0.00 0.00 0.00 94 1014.5
20260508055503 3 66 1.6 1.6 0.00 0.00 0.00 94 1014.4
20260508054959 3 66 0.0 0.0 0.00 0.00 0.00 94 1014.4
20260508054456 3 67 0.0 0.0 0.00 0.00 0.00 94 1014.3
20260508053953 3 67 1.6 1.6 0.00 0.00 0.00 95 1014.4
20260508053450 3 67 0.0 0.0 0.00 0.00 0.00 94 1014.4
20260508052948 3 67 0.0 1.6 0.00 0.00 0.00 94 1014.4
20260508052445 3 67 0.0 1.6 0.00 0.00 0.00 94 1014.4
20260508051942 4 66 0.0 1.6 0.00 0.00 0.00 94 1014.5
20260508051437 4 66 0.0 0.0 0.00 0.00 0.00 93 1014.9
20260508050934 4 66 0.0 0.0 0.00 0.00 0.00 93 1014.6
20260508050431 4 66 0.0 0.0 0.00 0.00 0.00 92 1014.8
20260508045927 3 66 0.0 0.0 0.00 0.00 0.00 91 1014.6
20260508045425 4 66 0.0 0.0 0.00 0.00 0.00 91 1014.6
20260508044922 4 66 0.0 0.0 0.00 0.00 0.00 91 1014.5
20260508044419 4 66 0.0 0.0 0.00 0.00 0.00 90 1014.7
20260508043914 4 66 0.0 0.0 0.00 0.00 0.00 89 1014.7
20260508043412 4 66 0.0 0.0 0.00 0.00 0.00 89 1014.6
20260508042908 4 66 0.0 0.0 0.00 0.00 0.00 89 1014.6
20260508042400 5 66 0.0 1.6 0.00 0.00 0.00 88 1014.3
20260508041856 4 66 0.0 0.0 0.00 0.00 0.00 87 1014.5
20260508041353 5 66 0.0 0.0 0.00 0.00 0.00 87 1014.6
20260508040849 5 66 1.6 1.6 0.00 0.00 0.00 88 1014.5
20260508040347 5 66 0.0 0.0 0.00 0.00 0.00 87 1014.4
20260508035844 5 66 0.0 0.0 0.00 0.00 0.00 87 1014.4
20260508035341 5 66 0.0 0.0 0.00 0.00 0.00 86 1014.5
20260508034838 5 66 0.0 0.0 0.00 0.00 0.00 86 1014.5
20260508034335 5 66 0.0 0.0 0.00 0.00 0.00 84 1014.4
20260508033832 5 66 1.6 1.6 0.00 0.00 0.00 83 1014.5
20260508033331 5 66 0.0 0.0 0.00 0.00 0.00 84 1014.5
20260508032828 5 66 0.0 0.0 0.00 0.00 0.00 83 1014.4
20260508032325 5 66 0.0 0.0 0.00 0.00 0.00 82 1014.6
20260508031821 6 66 0.0 1.6 0.00 0.00 0.00 82 1014.5
20260508031318 6 66 0.0 1.6 0.00 0.00 0.00 80 1014.2
20260508030814 6 66 0.0 0.0 0.00 0.00 0.00 77 1014.5
20260508030312 6 65 0.0 0.0 0.00 0.00 0.00 78 1014.2
20260508025808 6 65 0.0 0.0 0.00 0.00 0.00 78 1014.3
20260508025306 6 65 0.0 0.0 0.00 0.00 0.00 78 1014.3
20260508024801 6 65 0.0 0.0 0.00 0.00 0.00 78 1014.4
20260508024258 6 66 0.0 0.0 0.00 0.00 0.00 77 1014.5
20260508023755 7 66 0.0 0.0 0.00 0.00 0.00 75 1014.3
20260508023252 7 66 0.0 0.0 0.00 0.00 0.00 75 1014.2
20260508022748 7 65 0.0 0.0 0.00 0.00 0.00 74 1014.2
20260508022245 7 65 0.0 0.0 0.00 0.00 0.00 74 1014.1
20260508021742 7 65 0.0 0.0 0.00 0.00 0.00 72 1014.2
20260508021237 7 65 0.0 0.0 0.00 0.00 0.00 70 1014.1
20260508020735 8 65 0.0 0.0 0.00 0.00 0.00 68 1014.0
20260508020232 8 65 0.0 0.0 0.00 0.00 0.00 66 1013.9
20260508015729 8 65 1.6 1.6 0.00 0.00 0.00 64 1014.0
20260508015226 8 65 1.6 1.6 0.00 0.00 0.00 65 1013.6
20260508014723 8 65 0.0 1.6 0.00 0.00 0.00 66 1013.6
20260508014220 8 65 0.0 1.6 0.00 0.00 0.00 65 1013.6
20260508013715 8 65 0.0 0.0 0.00 0.00 0.00 66 1013.7
20260508013212 8 65 0.0 0.0 0.00 0.00 0.00 66 1013.6
20260508012710 8 65 0.0 0.0 0.00 0.00 0.00 65 1013.4
20260508012206 8 65 0.0 0.0 0.00 0.00 0.00 66 1013.3
20260508011705 9 65 0.0 0.0 0.00 0.00 0.00 64 1013.4
20260508011202 10 65 0.0 0.0 0.00 0.00 0.00 61 1013.3
20260508010658 10 64 0.0 0.0 0.00 0.00 0.00 59 1013.2
20260508010156 10 65 0.0 0.0 0.00 0.00 0.00 56 1013.1
20260508005653 11 65 0.0 1.6 0.00 0.00 0.00 55 1013.1
20260508005150 11 65 1.6 1.6 0.00 0.00 0.00 53 1013.1
20260508004646 11 55 0.0 1.6 0.00 0.00 0.00 53 1013.2
20260508004142 11 38 1.6 1.6 0.00 0.00 0.00 52 1013.2
20260508003639 12 38 1.6 1.6 0.00 0.00 0.00 51 1013.0
20260508003136 12 27 1.6 1.6 0.00 0.00 0.00 51 1013.0
20260508002632 12 355 0.0 1.6 0.00 0.00 0.00 48 1013.1
20260508002131 13 345 3.2 6.4 0.00 0.00 0.00 46 1013.0
20260508001625 13 315 1.6 3.2 0.00 0.00 0.00 45 1012.9
20260508001122 13 319 3.2 9.7 0.00 0.00 0.00 44 1012.9
20260508000618 13 358 0.0 4.8 0.00 0.00 0.00 44 1012.9
20260508000115 14 304 3.2 6.4 0.00 0.00 0.00 43 1012.7
20260507235612 14 344 4.8 12.9 0.00 0.00 0.00 42 1012.9
20260507235110 14 309 6.4 9.7 0.00 0.00 0.00 41 1012.6
20260507234606 14 321 8.0 11.3 0.00 0.00 0.00 40 1012.7
20260507234102 15 302 4.8 6.4 0.00 0.00 0.00 41 1012.6
20260507233559 15 327 9.7 12.9 0.00 0.00 0.00 39 1012.4
20260507233058 15 333 3.2 6.4 0.00 0.00 0.00 40 1012.5
20260507232553 15 293 3.2 6.4 0.00 0.00 0.00 39 1012.4
20260507232051 15 328 9.7 14.5 0.00 0.00 0.00 37 1012.6
20260507231547 15 338 6.4 12.9 0.00 0.00 0.00 37 1012.4
20260507231045 15 308 3.2 6.4 0.00 0.00 0.00 37 1012.5
20260507230541 15 337 4.8 12.9 0.00 0.00 0.00 37 1012.5
20260507230038 16 294 6.4 14.5 0.00 0.00 0.00 36 1012.3
20260507225533 16 303 3.2 6.4 0.00 0.00 0.00 38 1012.4
20260507225029 17 317 3.2 4.8 0.00 0.00 0.00 37 1012.2
20260507224525 17 284 3.2 4.8 0.00 0.00 0.00 36 1012.2
20260507224022 17 288 3.2 6.4 0.00 0.00 0.00 34 1012.2
20260507223518 17 242 3.2 6.4 0.00 0.00 0.00 35 1012.0
20260507223016 17 305 4.8 9.7 0.00 0.00 0.00 34 1012.0
20260507222513 17 283 3.2 6.4 0.00 0.00 0.00 32 1012.1
20260507222009 17 311 3.2 14.5 0.00 0.00 0.00 33 1012.1
20260507221506 18 264 3.2 6.4 0.00 0.00 0.00 34 1011.8
20260507221002 18 295 1.6 11.3 0.00 0.00 0.00 38 1012.1
20260507220459 17 349 3.2 11.3 0.00 0.00 0.00 32 1012.1
20260507215956 17 13 9.7 16.1 0.00 0.00 0.00 35 1011.9
20260507215452 17 20 6.4 16.1 0.00 0.00 0.00 35 1011.8
20260507214950 18 326 6.4 11.3 0.00 0.00 0.00 34 1011.8
20260507214447 18 314 6.4 9.7 0.00 0.00 0.00 33 1011.6
20260507213943 17 219 6.4 17.7 0.00 0.00 0.00 33 1011.8
20260507213440 17 304 3.2 9.7 0.00 0.00 0.00 35 1012.0
20260507212937 17 52 1.6 12.9 0.00 0.00 0.00 38 1011.9
20260507212432 17 290 4.8 20.9 0.00 0.00 0.00 38 1011.5
20260507211930 17 324 16.1 24.1 0.00 0.00 0.00 34 1011.5
20260507211426 18 353 6.4 11.3 0.00 0.00 0.00 34 1011.5
20260507210923 18 359 1.6 9.7 0.00 0.00 0.00 37 1011.3
20260507210420 18 3 6.4 17.7 0.00 0.00 0.00 37 1011.4
20260507205917 18 294 3.2 4.8 0.00 0.00 0.00 36 1011.4
20260507205414 17 268 6.4 11.3 0.00 0.00 0.00 33 1011.4
20260507204910 17 312 4.8 16.1 0.00 0.00 0.00 36 1011.3
20260507204406 17 303 11.3 17.7 0.00 0.00 0.00 37 1011.1
20260507203904 17 340 4.8 14.5 0.00 0.00 0.00 40 1011.2
20260507203402 17 286 4.8 4.8 0.00 0.00 0.00 37 1011.3
20260507202858 18 281 3.2 14.5 0.00 0.00 0.00 40 1011.2
20260507202354 17 331 11.3 20.9 0.00 0.00 0.00 36 1011.3
20260507201845 18 295 6.4 12.9 0.00 0.00 0.00 37 1011.3
20260507201340 18 307 6.4 11.3 0.00 0.00 0.00 38 1011.2
20260507200836 17 324 8.0 11.3 0.00 0.00 0.00 46 1011.2
20260507200333 17 352 4.8 9.7 0.00 0.00 0.00 39 1011.1
20260507195829 17 312 9.7 16.1 0.00 0.00 0.00 40 1011.2
20260507195327 17 226 4.8 9.7 0.00 0.00 0.00 39 1011.3
20260507194824 17 326 4.8 11.3 0.00 0.00 0.00 39 1011.1
20260507194320 17 302 4.8 6.4 0.00 0.00 0.00 38 1011.4
20260507193817 17 8 8.0 14.5 0.00 0.00 0.00 41 1011.4
20260507193314 17 334 4.8 9.7 0.00 0.00 0.00 43 1011.2
20260507192809 17 322 4.8 14.5 0.00 0.00 0.00 39 1011.3
20260507192307 18 303 1.6 9.7 0.00 0.00 0.00 38 1011.2
20260507191803 17 308 6.4 6.4 0.00 0.00 0.00 41 1011.6
20260507191259 17 304 3.2 16.1 0.00 0.00 0.00 40 1011.6
20260507190756 17 353 1.6 9.7 0.00 0.00 0.00 46 1011.6
20260507190255 17 323 4.8 9.7 0.00 0.00 0.00 40 1011.8
20260507185753 16 324 9.7 17.7 0.00 0.00 0.00 43 1012.0
20260507185249 17 261 4.8 12.9 0.00 0.00 0.00 43 1011.9
20260507184747 17 229 8.0 11.3 0.00 0.00 0.00 39 1012.0
20260507184245 17 344 8.0 11.3 0.00 0.00 0.00 41 1011.8
20260507183741 16 295 0.0 3.2 0.00 0.00 0.00 40 1012.0
20260507183238 18 312 3.2 6.4 0.00 0.00 0.00 42 1011.8
20260507182736 17 298 3.2 6.4 0.00 0.00 0.00 48 1012.1
20260507182235 16 314 9.7 11.3 0.00 0.00 0.00 39 1011.8
20260507181733 16 312 3.2 11.3 0.00 0.00 0.00 45 1011.9
20260507181229 16 354 6.4 9.7 0.00 0.00 0.00 42 1012.0
20260507180726 17 236 9.7 12.9 0.00 0.00 0.00 38 1012.1
20260507180223 17 224 3.2 9.7 0.00 0.00 0.00 42 1011.9
20260507175718 17 312 6.4 11.3 0.00 0.00 0.00 48 1012.0
20260507175215 17 202 9.7 12.9 0.00 0.00 0.00 41 1012.0
20260507174713 17 245 1.6 14.5 0.00 0.00 0.00 46 1012.3
20260507174211 16 341 3.2 9.7 0.00 0.00 0.00 43 1012.3
20260507173708 17 237 4.8 9.7 0.00 0.00 0.00 42 1012.2
20260507173205 17 305 4.8 6.4 0.00 0.00 0.00 43 1012.3
20260507172701 17 38 3.2 11.3 0.00 0.00 0.00 45 1012.3
20260507172158 16 1 4.8 12.9 0.00 0.00 0.00 45 1012.6
20260507171658 16 318 0.0 4.8 0.00 0.00 0.00 45 1012.4
20260507171156 16 258 4.8 9.7 0.00 0.00 0.00 53 1012.7
20260507170653 16 273 3.2 6.4 0.00 0.00 0.00 44 1012.8
20260507170150 17 344 3.2 6.4 0.00 0.00 0.00 47 1012.9
20260507165645 16 204 4.8 12.9 0.00 0.00 0.00 52 1012.9
20260507165142 16 329 6.4 9.7 0.00 0.00 0.00 50 1012.9
20260507164637 16 334 8.0 9.7 0.00 0.00 0.00 47 1013.0
20260507164135 16 162 3.2 4.8 0.00 0.00 0.00 43 1013.0
20260507163632 16 289 4.8 4.8 0.00 0.00 0.00 46 1013.1
20260507163130 16 348 4.8 11.3 0.00 0.00 0.00 46 1013.1
20260507162625 16 246 3.2 11.3 0.00 0.00 0.00 50 1013.4
20260507162122 16 301 6.4 11.3 0.00 0.00 0.00 46 1013.3
20260507161618 15 310 3.2 11.3 0.00 0.00 0.00 47 1013.3
20260507161115 15 308 3.2 17.7 0.00 0.00 0.00 47 1013.4
20260507160612 16 248 1.6 4.8 0.00 0.00 0.00 50 1013.5
20260507160108 16 347 4.8 4.8 0.00 0.00 0.00 45 1013.6
20260507155603 16 244 6.4 6.4 0.00 0.00 0.00 45 1013.5
20260507155100 15 309 3.2 6.4 0.00 0.00 0.00 56 1013.7
20260507154557 16 7 1.6 3.2 0.00 0.00 0.00 49 1013.8
20260507154054 16 209 0.0 3.2 0.00 0.00 0.00 48 1013.8
20260507153551 16 242 6.4 6.4 0.00 0.00 0.00 45 1013.9
20260507153047 15 265 1.6 9.7 0.00 0.00 0.00 50 1013.9
20260507152543 16 311 1.6 4.8 0.00 0.00 0.00 48 1013.9
20260507152040 15 345 3.2 9.7 0.00 0.00 0.00 53 1014.1
20260507151536 15 349 6.4 9.7 0.00 0.00 0.00 51 1013.9
20260507151034 15 36 3.2 9.7 0.00 0.00 0.00 47 1014.0
20260507150531 16 13 8.0 12.9 0.00 0.00 0.00 48 1014.1
20260507150028 15 257 1.6 6.4 0.00 0.00 0.00 49 1014.2
20260507145528 15 347 8.0 11.3 0.00 0.00 0.00 48 1014.2
20260507145026 15 351 3.2 6.4 0.00 0.00 0.00 52 1014.5
20260507144522 15 249 4.8 4.8 0.00 0.00 0.00 50 1014.4
20260507144020 15 348 1.6 4.8 0.00 0.00 0.00 48 1014.3
20260507143517 15 305 3.2 6.4 0.00 0.00 0.00 51 1014.4
20260507143014 15 8 3.2 4.8 0.00 0.00 0.00 50 1014.6
20260507142509 14 324 0.0 6.4 0.00 0.00 0.00 53 1014.8
20260507142007 14 341 6.4 6.4 0.00 0.00 0.00 52 1014.4
20260507141502 14 12 4.8 6.4 0.00 0.00 0.00 56 1014.8
20260507140959 14 3 1.6 3.2 0.00 0.00 0.00 55 1014.7
20260507140456 14 5 3.2 4.8 0.00 0.00 0.00 52 1014.6
20260507135953 14 295 4.8 4.8 0.00 0.00 0.00 54 1014.9
20260507135450 14 349 4.8 6.4 0.00 0.00 0.00 57 1014.8
20260507134947 13 7 1.6 3.2 0.00 0.00 0.00 62 1014.7
20260507134444 13 223 3.2 4.8 0.00 0.00 0.00 58 1014.8
20260507133940 13 336 3.2 6.4 0.00 0.00 0.00 61 1014.7
20260507133436 13 359 3.2 3.2 0.00 0.00 0.00 58 1014.7
20260507132935 13 357 0.0 3.2 0.00 0.00 0.00 64 1014.7
20260507132431 13 4 1.6 4.8 0.00 0.00 0.00 67 1014.5
20260507131927 13 344 1.6 4.8 0.00 0.00 0.00 64 1014.7
20260507131424 12 20 0.0 0.0 0.00 0.00 0.00 75 1014.4
20260507130921 12 20 1.6 3.2 0.00 0.00 0.00 77 1014.0
20260507130418 12 33 1.6 3.2 0.00 0.00 0.00 79 1014.0
20260507125917 12 35 1.6 1.6 0.00 0.00 0.00 80 1014.0
20260507125414 12 35 0.0 1.6 0.00 0.00 0.00 82 1013.8
20260507124912 11 36 1.6 1.6 0.00 0.00 0.00 84 1013.7
20260507124408 11 36 1.6 1.6 0.00 0.00 0.00 87 1013.8
20260507123906 10 36 1.6 1.6 0.00 0.00 0.00 90 1013.9
20260507123403 10 36 1.6 1.6 0.00 0.00 0.00 92 1013.8
20260507122900 9 36 1.6 1.6 0.00 0.00 0.00 95 1013.9
20260507122355 9 36 1.6 1.6 0.00 0.00 0.00 98 1014.0
20260507121851 9 36 0.0 0.0 0.00 0.00 0.00 99 1013.9
20260507121347 8 36 0.0 1.6 0.00 0.00 0.00 99 1013.7
20260507120844 8 34 1.6 1.6 0.00 0.00 0.00 99 1013.8
20260507120340 8 34 0.0 0.0 0.00 0.00 0.00 99 1013.8
20260507115836 7 33 0.0 0.0 0.00 0.00 0.00 99 1013.6
20260507115332 7 36 0.0 0.0 0.00 0.00 0.00 99 1013.6
20260507114828 6 36 0.0 0.0 0.00 0.00 0.00 99 1013.4
20260507114325 6 36 0.0 0.0 0.00 0.00 0.00 99 1013.5
20260507113823 6 36 0.0 0.0 0.00 0.00 0.00 99 1013.6
20260507113319 6 36 0.0 0.0 0.00 0.00 0.00 99 1013.6
20260507112817 5 36 0.0 0.0 0.00 0.00 0.00 99 1013.6
20260507112314 5 36 0.0 0.0 0.00 0.00 0.00 99 1013.4
20260507111812 5 36 0.0 0.0 0.00 0.00 0.00 99 1013.3